Location: El Recuerdo
(3.6589°N, 75.6172°W)
Time: 21:35:34
(UTC+00:00)

Meteor 1-5 Rocket - Pass Details

Date: 21 March 2026
Orbit: 787 x 914 km, 81.2° (Epoch: 11 April)

Event Time Altitude Azimuth Distance (km) Brightness Sun altitude
Rises 10:16:35 0° 0° (N) 3,266 7.3 -13.2°
Reaches altitude 10° 10:18:58 10° 3° (N) 2,337 6.6 -12.6°
Maximum altitude 10:24:09 65° 85° (E) 861 4.5 -11.3°
Drops below altitude 10° 10:29:26 10° 167° (SSE) 2,368 6.7 -10.0°
Sets 10:31:51 0° 169° (S) 3,313 7.4 -9.4°
